Weather History for Montreal Mirabel, QC

Change the Weather History Date:

Monday, November 5, 2012

  Actual Average Record
Temperature  
Mean Temperature 30 °F -  
Max Temperature 33 °F 42 °F 62 °F (2008)
Min Temperature 26 °F 29 °F 24 °F (2006)
Degree Days  
Heating Degree Days 36    
Moisture  
Dew Point 18 °F    
Average Humidity 58    
Maximum Humidity 80    
Minimum Humidity 47    
Precipitation  
Precipitation 0.00 in - - ()
Sea Level Pressure  
Sea Level Pressure 30.11 in    
Wind  
Wind Speed 6 mph ()    
Max Wind Speed 12 mph    
Max Gust Speed 18 mph    
Averages and records for this station are not official NWS values.
T = Trace of Precipitation, MM = Missing Value Source: Averaged Metar Reports

Daily Weather History Graph

Daily Weather History Graph

Search for Another Location

Airport:

Trip Planner

Search our weather history database for the weather conditions in past years. The results will help you decide how hot, cold, wet, or windy it might be!

Date:

Astronomy

Nov. 05, 2012 Rise Set
Actual Time 6:42 AM EST 4:36 PM EST
Civil Twilight 6:10 AM EST 5:07 PM EST
Nautical Twilight 5:35 AM EST 5:43 PM EST
Astronomical Twilight 5:00 AM EST 6:17 PM EST
Moon 10:11 PM EST (11/5) 12:01 PM EST (11/5)
Length of Visible Light 10h 57m
Length of Day
9h 54m
Waning Gibbous, 63% of the Moon is Illuminated
Nov 5
Waning Gibbous
Nov 6
Last Quarter
Nov 13
New
Nov 20
First Quarter
Nov 28
Full

Hourly Weather History & Observations

Time (EST) Temp. Windchill Dew Point Humidity Pressure Visibility Wind Dir Wind Speed Gust Speed Precip Events Conditions
12:00 AM 33.8 °F 27.7 °F 21.2 °F 60% 30.06 in 25.0 mi NNW 6.9 mph - N/A   Overcast
1:00 AM 32.0 °F 24.8 °F 19.4 °F 60% 30.06 in 25.0 mi NNW 8.1 mph - N/A   Mostly Cloudy
2:00 AM 30.2 °F 21.9 °F 17.6 °F 60% 30.06 in 25.0 mi NW 9.2 mph - N/A   Mostly Cloudy
3:00 AM 28.4 °F 22.2 °F 19.4 °F 69% 30.07 in 25.0 mi NW 5.8 mph - N/A   Mostly Cloudy
4:00 AM 30.2 °F 25.4 °F 21.2 °F 69% 30.07 in 25.0 mi NW 4.6 mph - N/A   Mostly Cloudy
5:00 AM 30.2 °F 25.4 °F 23.0 °F 75% 30.08 in 25.0 mi West 4.6 mph - N/A   Mostly Cloudy
6:00 AM 28.4 °F 21.2 °F 21.2 °F 74% 30.09 in 25.0 mi NW 6.9 mph - N/A   Partly Cloudy
7:00 AM 26.6 °F 20.0 °F 21.2 °F 80% 30.10 in 45.0 mi NW 5.8 mph - N/A   Partly Cloudy
8:00 AM 30.2 °F 24.3 °F 21.2 °F 69% 30.10 in 35.0 mi NW 5.8 mph - N/A   Partly Cloudy
9:00 AM 32.0 °F 23.0 °F 19.4 °F 60% 30.11 in 40.0 mi North 11.5 mph - N/A   Scattered Clouds
10:00 AM 33.8 °F 25.8 °F 17.6 °F 52% 30.11 in 45.0 mi NNW 10.4 mph - N/A   Partly Cloudy
11:00 AM 33.8 °F 25.8 °F 17.6 °F 52% 30.11 in 45.0 mi NNW 10.4 mph 17.3 mph N/A   Mostly Cloudy
12:00 PM 33.8 °F 28.6 °F 15.8 °F 48% 30.10 in 45.0 mi WNW 5.8 mph - N/A   Mostly Cloudy
1:00 PM 33.8 °F 27.0 °F 17.6 °F 52% 30.10 in 45.0 mi NW 8.1 mph - N/A   Overcast
1:09 PM 33.8 °F 27.7 °F 17.6 °F 52% 30.10 in 40.0 mi NNW 6.9 mph - N/A Snow Light Snow Showers
2:00 PM 33.8 °F 27.7 °F 19.4 °F 56% 30.09 in 45.0 mi NW 6.9 mph - N/A Snow Light Snow Showers
3:00 PM 33.8 °F 26.4 °F 19.4 °F 56% 30.10 in 35.0 mi WNW 9.2 mph - N/A Snow Light Snow Showers
4:00 PM 33.8 °F 27.0 °F 15.8 °F 48% 30.11 in 35.0 mi WNW 8.1 mph - N/A Snow Light Snow Showers
5:00 PM 32.0 °F 25.6 °F 15.8 °F 51% 30.12 in 25.0 mi WNW 6.9 mph - N/A Snow Light Snow Showers
6:00 PM 30.2 °F 23.4 °F 12.2 °F 47% 30.15 in 25.0 mi WNW 6.9 mph 18.4 mph N/A   Mostly Cloudy
7:00 PM 30.2 °F - 14.0 °F 51% 30.15 in 25.0 mi WNW 2.3 mph - N/A Snow Light Snow Showers
8:00 PM 30.2 °F 25.4 °F 14.0 °F 51% 30.16 in 25.0 mi WNW 4.6 mph - N/A   Overcast
9:00 PM 28.4 °F 22.2 °F 14.0 °F 55% 30.17 in 25.0 mi NW 5.8 mph - N/A   Scattered Clouds
10:00 PM 28.4 °F 23.3 °F 12.2 °F 51% 30.17 in 25.0 mi WNW 4.6 mph - N/A   Scattered Clouds
11:00 PM 26.6 °F 20.0 °F 12.2 °F 55% 30.17 in 25.0 mi NW 5.8 mph - N/A   Partly Cloudy